Location: Unspecified
(58.7730°N, 5.8460°E)
Time: 18:36:43
(UTC+02:00)

Resurs 1-4 Rocket - Visible Passes

Search period start: 21 July 2017 00:00
Search period end: 31 July 2017 00:00
Orbit: 800 x 814 km, 98.5° (Epoch: 21 July)

Date Brightness Start Highest point End Pass type
(mag) Time Alt. Az. Time Alt. Az. Time Alt. Az.
21 Jul 3.1 03:38:51 10° NNE 03:43:56 44° E 03:48:58 10° S visible
22 Jul 3.6 03:14:27 10° NNE 03:19:09 31° E 03:23:48 10° SSE visible
23 Jul 4.1 02:50:13 10° NE 02:54:17 22° E 02:58:18 10° SE visible
24 Jul 4.4 02:26:18 10° NE 02:29:19 15° E 02:32:18 10° ESE visible
24 Jul 2.5 04:04:57 10° NNE 04:10:14 65° ESE 04:15:29 10° S visible
25 Jul 3.0 03:40:26 10° NNE 03:45:32 45° E 03:50:35 10° S visible
26 Jul 3.5 03:16:02 10° NNE 03:20:46 32° E 03:25:26 10° SSE visible
27 Jul 4.0 02:51:47 10° NE 02:55:53 22° E 02:59:58 10° SE visible
28 Jul 4.4 02:27:50 10° NE 02:30:56 15° E 02:34:02 10° ESE visible
28 Jul 2.4 04:06:32 10° NNE 04:11:50 67° ESE 04:17:04 10° S visible
29 Jul 4.7 02:05:06 10° ENE 02:05:53 10° ENE 02:06:40 10° E visible
29 Jul 2.9 03:42:01 10° NNE 03:47:08 46° E 03:52:12 10° S visible
30 Jul 3.5 03:17:36 10° NNE 03:22:21 32° E 03:27:04 10° SSE visible
